CZ-12 R/B

基本信息
目录编号:
69581
目录名称:
CZ-12 R/B
国际标识:
2026-137K
轨道中心:
EARTH
物体状态:
在轨
发射日期:
2026-06-17 UTC
国别:
中国 (CN)
轨道信息
数据来源: 国际轨道数据
星历时间: 2026-09-04T10:07:52+0800
半长轴: 7231.708km
偏心率: 0.0077406
轨道倾角: 49.990°
近地点辐角: 23.628°
升交点赤经: 289.711°
平近点角: 336.815°
近地点: 797.593km
远地点: 909.549km
周期: 102.005分钟
每日圈数: 14.116971
详细信息
发射场:
WSC
轨道高度:
LEO
数据来源:
AOE Integration Group
参考系:
TEME
时间系统:
UTC
历元类型:
SGP4
2D轨道图
3D轨道图
轨道高度分析图
轨道倾角分析图
轨道综合分析图
查看轨道综合分析图